Seldovia, AK

8:19 AM AKDT on April 30, 2017 (GMT -0800)
Seldovia

Weather History for PASO - July, 2013

Change the Weather History Date:

Tuesday, July 23, 2013

  Actual Average (PAHO) Record (PAHO)
Temperature  
Mean Temperature 58 °F -  
Max Temperature 71 °F 61 °F 73 °F (1955)
Min Temperature 48 °F 47 °F 36 °F (1943)
Degree Days  
Heating Degree Days 7    
Growing Degree Days 8 (Base 50)    
Moisture  
Dew Point 50 °F    
Average Humidity 80    
Maximum Humidity 93    
Minimum Humidity 56    
Precipitation  
Precipitation 0.00 in - - ()
Sea Level Pressure  
Sea Level Pressure 30.10 in    
Wind  
Wind Speed 2 mph (NNE)    
Max Wind Speed 8 mph    
Max Gust Speed 16 mph    
Visibility 10 miles    
Events      
Averages and records for this station are not official NWS values.
T = Trace of Precipitation, MM = Missing Value Source: NWS Daily Summary

Daily Weather History Graph

Daily Weather History Graph

Search for Another Location

Airport or City:

Trip Planner

Search our weather history database for the weather conditions in past years. The results will help you decide how hot, cold, wet, or windy it might be!

Date:

Astronomy

Jul. 23, 2013 Rise Set
Actual Time 5:32 AM AKDT 10:52 PM AKDT
Civil Twilight 4:27 AM AKDT 11:57 PM AKDT
Nautical Twilight 2:45 AM AKDT 1:40 AM AKDT
Astronomical Twilight Sun does not set Sun does not set
Moon 10:37 PM AKDT (7/23) 7:32 AM AKDT (7/23)
Length of Visible Light 19h 29m
Length of Day
17h 20m
Full, 98% of the Moon is Illuminated
Jul 23
Full
Jul 29
Last Quarter
Aug 6
New
Aug 14
First Quarter
Aug 20
Full

Hourly Weather History & Observations

Time (AKDT) Temp. Dew Point Humidity Pressure Visibility Wind Dir Wind Speed Gust Speed Precip Events Conditions
12:53 AM 51.1 °F 46.9 °F 86% 30.12 in 10.0 mi NE 5.8 mph - N/A   Clear
1:53 AM 52.0 °F 46.9 °F 83% 30.12 in 10.0 mi Calm Calm - N/A   Clear
2:53 AM 48.9 °F 46.0 °F 90% 30.11 in 10.0 mi Calm Calm - N/A   Clear
3:53 AM 48.9 °F 45.0 °F 86% 30.11 in 10.0 mi Calm Calm - N/A   Clear
4:53 AM 50.0 °F 46.0 °F 86% 30.11 in 10.0 mi Calm Calm - N/A   Clear
5:53 AM 50.0 °F 46.0 °F 86% 30.11 in 10.0 mi Calm Calm - N/A   Clear
6:53 AM 51.1 °F 46.9 °F 86% 30.11 in 10.0 mi Calm Calm - N/A   Clear
7:53 AM 53.1 °F 48.9 °F 86% 30.11 in 10.0 mi Calm Calm - N/A   Clear
8:53 AM 57.9 °F 51.1 °F 78% 30.10 in 10.0 mi Calm Calm - N/A   Clear
9:53 AM 64.0 °F 53.1 °F 67% 30.09 in 10.0 mi Calm Calm - N/A   Clear
10:53 AM 64.9 °F 55.0 °F 70% 30.09 in 10.0 mi NNE 5.8 mph - N/A   Clear
11:53 AM 64.9 °F 53.1 °F 65% 30.09 in 10.0 mi NNE 4.6 mph - N/A   Clear
12:53 PM 68.0 °F 52.0 °F 56% 30.09 in 10.0 mi NNE 5.8 mph - N/A   Clear
1:53 PM 66.9 °F 55.0 °F 66% 30.09 in 10.0 mi NNE 4.6 mph - N/A   Clear
2:53 PM 59.0 °F 51.1 °F 75% 30.10 in 10.0 mi NNE 8.1 mph 16.1 mph N/A   Clear
3:53 PM 60.1 °F 52.0 °F 75% 30.09 in 10.0 mi NNE 4.6 mph - N/A   Clear
4:53 PM 55.9 °F 50.0 °F 80% 30.09 in 10.0 mi North 3.5 mph - N/A   Clear
5:53 PM 54.0 °F 48.9 °F 83% 30.09 in 10.0 mi North 4.6 mph - N/A   Clear
6:53 PM 55.0 °F 48.9 °F 80% 30.09 in 10.0 mi Calm Calm - N/A   Clear
7:53 PM 55.0 °F 48.9 °F 80% 30.09 in 10.0 mi Calm Calm - N/A   Clear
8:53 PM 55.9 °F 50.0 °F 80% 30.07 in 10.0 mi Calm Calm - N/A   Clear
9:53 PM 55.9 °F 51.1 °F 84% 30.07 in 10.0 mi Calm Calm - N/A   Clear
10:53 PM 53.1 °F 51.1 °F 93% 30.07 in 10.0 mi Calm Calm - N/A   Clear
11:53 PM 51.1 °F 48.9 °F 92% 30.07 in 10.0 mi Calm Calm - N/A   Clear